Wind_Speed
29 28 28 27 29 29 32 35 36 35 36 36 40 39 38 37 38 39 39 41 41 41 42 41 44 41 39 42 45 42 35 32 20 31 32 37 39 41 43 43 43 43 44
34 31 30 29 29 31 28 31 36 37 38 39 40 38 36 38 41 42 41 36 39 38 41 42 46 43 43 43 39 38 37 37 30 26 32 32 36 44 42 42 43 43 44
33 34 33 32 31 30 30 29 32 36 38 37 38 38 39 38 39 42 43 41 42 45 41 40 43 39 40 38 37 36 37 36 31 29 33 36 35 33 38 40 43 43 44
31 31 32 33 32 31 32 30 32 35 35 37 38 38 40 38 39 40 42 43 42 41 41 45 44 42 45 42 39 40 39 34 32 30 32 35 34 32 38 30 29 35 41
24 27 32 35 36 36 35 34 34 32 36 36 35 37 38 40 41 40 39 38 39 40 40 43 45 46 49 49 43 42 37 33 33 33 32 33 32 22 24 32 29 32 29
22 22 18 20 23 29 33 36 36 35 33 33 37 37 38 40 42 44 42 38 38 38 40 41 43 43 50 53 55 55 46 37 36 33 34 32 35 34 32 35 34 18 6
4 1 4 18 26 29 32 32 33 35 35 37 37 38 39 42 43 44 43 45 39 40 40 39 39 42 44 48 52 55 55 55 54 48 42 40 40 39 34 29 31 20 11
22 19 16 12 7 5 24 29 31 32 35 36 37 38 38 41 42 43 45 46 46 45 43 43 43 45 44 47 47 45 48 52 55 53 47 41 36 23 19 22 23 15 13
23 20 18 16 16 12 8 5 12 27 30 33 33 32 35 40 33 40 42 48 45 45 45 44 43 42 44 45 44 45 36 24 16 20 17 13 8 7 9 13 16 18 5
21 19 18 17 16 15 14 12 11 13 13 21 11 10 6 11 13 25 33 36 34 37 37 40 41 42 41 41 40 42 28 21 21 25 26 24 19 18 14 14 12 14 11
17 18 21 20 17 18 16 15 13 9 5 9 12 12 11 11 10 13 14 17 22 22 18 11 9 12 15 18 22 19 22 28 25 25 26 26 24 24 22 18 16 15 16
21 24 26 26 23 25 23 21 19 14 15 17 18 21 20 21 24 21 16 12 8 19 25 26 28 31 30 28 31 34 32 28 29 29 27 22 25 22 19 17 15 14 13
23 23 24 27 28 27 29 28 25 21 16 16 17 17 17 19 23 30 31 34 35 37 31 32 32 37 38 35 32 31 29 27 26 24 19 20 22 16 15 13 12 11 10
18 19 21 26 29 30 28 28 25 22 18 16 15 15 15 17 20 24 29 29 39 38 36 36 34 36 35 33 30 27 28 27 26 22 20 19 17 17 17 13 13 11 10
17 17 18 20 22 27 35 31 28 33 24 19 19 19 18 20 20 19 21 24 28 28 27 30 27 29 30 29 28 24 24 23 22 21 19 16 15 15 15 13 14 13 12
16 16 17 18 19 20 21 28 38 38 38 35 30 28 31 27 25 25 24 24 24 24 29 24 22 23 22 21 21 21 22 20 18 19 19 14 13 13 14 14 14 14 11
19 18 18 19 18 18 18 17 17 25 35 36 34 31 30 28 26 24 24 25 26 28 27 23 22 22 21 21 21 20 18 14 14 17 16 13 12 12 13 12 12 11 9
21 21 20 19 19 19 19 19 20 19 19 22 29 30 29 28 27 23 21 23 28 27 25 22 21 20 20 18 17 16 15 14 15 15 15 13 11 12 13 13 12 12 9
19 20 21 22 23 23 23 24 23 21 20 19 22 24 22 23 25 26 25 27 22 21 20 22 20 19 18 18 16 16 15 15 14 14 14 13 12 13 15 14 12 12 10
22 20 20 20 20 21 21 21 20 19 19 19 20 19 17 19 25 25 23 22 22 19 18 18 17 16 16 15 13 13 13 13 13 13 12 11 10 10 11 11 12 13 14
19 19 19 20 19 19 18 19 18 18 18 19 20 17 17 22 20 21 21 20 18 17 15 15 15 14 13 12 11 11 12 12 11 10 9 9 9 9 9 11 11 12 11
18 18 18 19 18 18 18 18 18 17 16 17 17 16 16 18 18 19 19 18 15 14 12 11 12 12 10 10 9 8 8 8 8 8 9 8 6 6 7 7 8 9 11
17 17 17 17 18 17 18 18 18 18 16 16 16 16 16 17 16 16 14 13 11 11 10 10 10 10 8 7 6 6 7 9 10 11 11 8 7 5 5 6 7 9 11
15 16 17 17 17 17 18 18 17 16 15 15 14 13 13 13 13 12 10 8 7 7 7 8 8 9 10 8 8 7 8 10 12 13 11 8 5 3 3 3 4 6 8
16 16 16 16 16 16 16 16 16 14 13 12 11 10 9 7 7 7 8 8 5 4 5 7 9 10 10 7 6 8 10 11 10 9 7 5 4 3 2 2 3 7 9
16 15 15 14 13 13 12 11 11 11 11 9 7 5 5 4 4 5 7 7 5 5 5 6 5 6 7 8 10 10 10 10 12 13 9 6 4 3 3 4 4 7 9
Wind_Direction
196 193 196 198 200 203 206 210 210 209 210 212 215 217 214 214 219 223 223 226 229 232 233 229 233 237 226 228 237 239 239 237 240 257 257 263 262 262 264 262 261 266 272
196 197 200 199 199 200 203 212 216 216 216 218 220 221 221 222 222 225 226 226 230 225 227 226 232 233 232 234 236 239 238 238 237 248 259 256 257 263 264 262 266 271 271
196 201 205 206 203 206 210 213 218 222 222 221 222 222 225 225 226 230 232 231 231 234 233 233 233 231 232 234 236 239 242 246 243 243 255 260 260 260 259 261 263 266 267
195 199 204 208 209 211 215 215 216 220 221 222 223 225 227 228 230 231 233 234 236 235 236 238 237 232 235 236 236 240 245 245 246 244 252 257 257 258 252 253 258 261 261
206 207 209 211 213 213 215 217 217 216 221 224 225 226 227 228 228 228 230 232 234 237 238 239 239 238 241 242 239 245 243 243 247 251 254 257 258 244 237 255 251 256 253
206 216 224 224 223 221 221 220 220 221 221 223 224 225 226 228 231 231 229 230 234 237 240 241 243 244 247 249 251 250 247 243 245 247 253 253 253 250 245 239 245 215 235
98 155 216 228 224 225 226 224 223 225 226 224 226 227 230 234 237 237 237 237 237 238 240 243 245 246 248 251 252 250 252 251 246 248 253 253 259 253 245 224 220 213 208
42 42 31 19 4 298 232 228 228 226 225 225 229 229 233 240 242 243 241 238 238 240 240 242 242 245 245 245 246 247 249 247 248 251 254 262 262 261 246 241 213 172 132
24 24 23 12 7 358 4 305 265 236 230 229 231 232 233 242 248 249 242 237 237 241 243 243 244 245 246 246 241 238 233 232 244 238 226 207 183 163 180 186 146 133 55
25 14 22 19 16 11 2 349 327 306 302 241 216 202 214 234 260 247 245 241 237 236 239 241 243 245 246 245 240 231 198 173 147 122 114 113 110 111 116 121 123 98 108
34 32 29 29 25 20 13 16 20 24 48 88 98 71 60 39 1 328 281 266 262 248 232 224 235 235 225 221 212 185 146 125 107 98 97 90 89 89 85 85 91 89 84
44 44 40 38 36 34 32 23 31 52 72 71 72 63 57 50 49 38 32 43 69 88 76 65 69 71 78 94 101 109 109 105 106 100 91 76 84 82 80 79 83 82 86
51 48 43 41 39 37 38 32 27 26 43 70 79 76 67 64 70 76 72 89 97 92 86 88 86 93 94 85 89 97 103 100 94 79 72 78 84 87 82 74 74 73 68
57 58 56 54 51 48 47 43 40 34 38 45 53 62 65 65 79 87 89 94 99 100 102 95 94 91 88 92 90 92 90 90 85 79 82 84 80 75 71 59 50 51 66
60 62 65 65 65 63 59 54 56 54 58 61 61 64 65 65 66 82 87 84 91 98 99 88 84 82 80 79 78 77 85 90 89 96 87 79 74 70 60 56 51 50 56
61 59 64 72 71 69 67 64 61 65 65 67 69 73 74 79 79 79 82 84 90 90 83 76 71 70 74 74 69 69 73 74 77 78 75 71 67 69 66 58 54 51 41
63 62 62 66 67 71 68 63 62 58 59 59 59 61 65 69 73 81 90 90 89 92 70 68 70 75 72 74 77 77 73 69 76 82 83 74 67 62 63 60 56 55 41
73 76 73 72 71 70 68 69 66 61 53 49 56 59 59 62 65 71 83 93 71 71 71 69 66 69 72 77 83 87 94 92 84 78 73 70 71 77 69 56 48 48 42
63 66 78 84 86 87 85 77 74 70 63 58 59 60 61 61 68 68 80 70 66 63 68 73 79 84 88 92 92 91 88 85 83 82 78 72 63 61 62 56 52 46 42
78 78 82 84 83 82 80 74 68 66 63 58 53 51 62 71 66 67 74 79 76 74 79 83 83 85 86 89 93 95 91 84 76 67 59 54 53 57 60 59 50 38 31
75 80 84 79 73 72 72 72 73 71 67 63 63 63 71 75 65 65 68 68 72 78 82 84 83 83 84 84 86 89 90 86 77 63 49 44 40 44 38 40 40 36 26
77 75 77 82 86 77 77 85 84 80 79 78 76 73 74 79 81 78 73 69 68 71 71 69 70 70 68 70 74 73 71 62 46 28 13 5 11 15 19 21 20 20 20
80 81 82 80 84 88 86 85 87 89 89 90 88 83 80 81 79 81 78 69 66 71 65 57 58 66 46 34 38 39 33 25 11 357 348 347 344 341 346 356 1 10 20
88 89 89 88 90 91 91 90 91 93 96 95 91 89 89 84 81 78 72 65 65 71 58 48 39 27 23 23 29 29 18 2 347 342 338 330 314 298 303 332 16 25 4
85 87 88 90 92 95 97 95 91 89 87 92 92 85 81 80 65 51 37 30 28 13 10 0 354 352 1 8 3 354 351 347 347 346 332 322 297 273 284 330 341 346 350
85 86 87 88 86 85 86 91 92 86 78 73 77 67 50 46 41 19 7 354 338 326 325 325 334 345 350 342 330 335 340 340 339 338 326 311 290 262 281 293 323 340 346
Height
716 720 724 728 732 736 739 742 745 750 753 757 761 764 767 771 775 778 781 784 786 789 792 794 796 796 797 800 802 804 803 804 803 798 800 799 798 799 799 798 798 798 797
709 715 719 724 727 731 734 738 743 747 750 754 757 761 764 766 770 772 774 778 779 781 782 784 785 788 790 792 792 793 793 791 792 791 789 790 789 787 787 789 788 786 785
703 708 713 718 722 726 731 735 738 742 746 749 752 755 758 760 763 765 768 770 772 773 776 777 777 781 781 783 784 785 784 783 782 782 780 780 779 778 777 776 775 774 773
698 704 707 711 716 720 724 728 732 736 739 742 745 748 750 754 755 758 760 762 763 765 767 767 768 771 770 772 773 773 773 773 773 773 772 771 770 769 768 766 764 764 762
702 702 700 704 709 713 717 720 724 727 729 733 737 739 742 744 745 748 751 753 755 756 758 758 757 758 758 758 761 760 762 763 763 762 760 759 757 757 756 757 754 755 751
697 701 707 711 713 712 712 714 716 719 722 725 727 729 732 732 733 737 741 743 745 746 745 747 747 748 746 747 748 749 752 752 753 753 748 745 743 743 742 743 744 744 745
696 700 703 704 705 706 708 710 711 713 716 716 718 721 721 722 724 728 733 735 735 734 734 735 736 734 735 735 735 738 738 739 738 738 735 733 730 730 730 727 731 732 732
701 700 701 702 703 703 703 704 705 707 707 707 709 711 713 712 716 719 721 723 722 721 722 721 721 720 721 722 725 724 725 723 723 724 724 722 720 718 719 723 721 727 733
709 708 705 704 702 699 699 700 700 701 700 700 702 705 706 704 710 710 709 709 709 708 709 710 710 709 709 712 713 713 714 715 714 712 712 710 711 712 716 719 723 726 741
714 716 710 709 707 704 701 699 697 696 695 695 697 697 696 699 699 698 698 698 698 697 698 697 697 696 697 699 701 700 702 707 710 712 712 709 712 715 718 723 727 727 729
722 719 714 711 710 707 705 702 698 696 694 694 694 696 695 695 694 693 690 690 691 691 689 689 689 686 686 687 690 694 700 707 714 717 714 715 719 717 723 726 724 730 732
723 720 718 715 713 708 706 706 703 698 697 699 699 700 701 701 695 696 691 686 691 695 698 704 702 700 696 693 693 700 706 715 713 712 719 729 721 728 728 731 733 737 740
726 724 723 720 717 715 712 710 708 707 706 703 703 705 707 706 702 700 703 694 690 699 710 704 708 703 701 705 712 710 715 718 721 724 732 730 724 735 734 743 741 741 743
729 729 728 726 725 723 721 721 719 718 716 715 715 714 713 713 710 708 705 704 696 703 710 709 719 713 716 719 719 723 718 725 729 736 741 741 740 739 742 747 749 746 747
733 733 733 733 733 733 731 730 730 730 727 725 723 721 721 721 722 721 721 717 711 716 720 714 722 718 721 728 733 740 736 733 739 735 742 747 747 748 750 752 752 752 754
738 738 737 736 737 738 740 740 739 737 735 734 733 730 730 730 729 727 727 725 726 729 725 727 731 732 734 738 741 746 747 751 751 745 745 755 757 753 751 753 751 755 757
743 743 743 742 743 742 744 745 745 747 743 743 743 741 740 738 737 735 734 736 735 734 737 740 741 740 746 746 748 751 752 762 758 752 753 760 760 759 757 758 756 756 759
750 749 748 748 749 749 749 750 751 751 753 753 752 751 749 747 745 745 745 742 744 745 746 749 751 751 752 754 755 757 761 762 761 759 761 764 766 761 758 759 761 759 758
756 756 756 755 755 755 756 756 756 757 758 759 758 757 756 755 753 752 751 753 755 756 757 757 758 759 760 760 763 763 765 766 765 765 765 767 767 764 759 759 761 761 762
763 763 762 762 762 762 762 761 763 764 765 765 765 764 763 761 760 761 761 762 763 764 765 765 766 766 765 765 766 766 767 767 766 768 767 768 766 767 767 764 760 762 760
769 769 768 767 767 768 769 769 769 770 772 771 771 771 769 767 770 770 769 769 770 771 771 771 770 770 769 768 768 768 768 769 768 770 771 769 768 769 768 761 761 760 761
775 775 774 773 773 774 774 774 773 776 777 777 777 777 776 775 774 775 777 775 776 777 777 776 775 774 773 771 771 770 770 770 769 770 770 770 767 766 764 764 764 762 759
780 780 780 780 780 779 779 779 779 780 782 782 782 782 781 782 781 781 781 781 781 780 780 780 778 777 776 774 773 773 771 770 770 769 768 766 764 765 765 766 765 763 760
785 785 784 784 784 785 784 784 784 785 786 786 786 786 786 786 785 785 785 784 783 782 782 781 779 778 776 775 774 773 772 771 769 767 765 764 765 765 766 764 763 762 762
790 790 789 789 789 788 787 788 789 789 790 789 789 789 789 788 787 787 786 784 783 783 781 779 778 777 776 776 774 773 772 770 769 768 766 766 765 764 763 763 763 762 760
794 793 793 793 793 792 792 792 792 792 792 792 792 791 791 790 789 788 787 786 785 784 782 781 779 778 778 777 775 774 772 771 769 766 764 763 762 762 762 762 760 759 759